This demonstration page uses our WeatherBlox Daily Observations layout. Learn more.

Left ArrowRight Arrow

47.50024, -111.30081

Hourly Observations for May 26, 2015

Temp ( °F °C ) Dew Point ( °F °C ) Humidity (%) Winds ( mph kmh ) Pressure ( in mb ) Visibility ( mi km ) Precip ( " mm )
12:53 am 00:53 Mostly Cloudy 51 10.6 48 8.9 89 89 SW 8 13 29.87 1012 10 16 0.00 0.03
1:53 am 01:53 Cloudy 50 10 49 9.4 96 96 SSW 9 15 29.88 1012 10 16 0.00 0.00
2:53 am 02:53 Cloudy 50 10 49 9.4 96 96 WSW 3 6 29.86 1011 10 16 0.00 0.00
3:53 am 03:53 Cloudy with Light Rain 51 10.6 49 9.4 92 92 SSW 8 13 29.87 1012 10 16 0.01 0.25
4:53 am 04:53 Cloudy with Rain 51 10.6 50 10 96 96 SSW 6 9 29.87 1012 7 11 0.04 1.02
5:53 am 05:53 Cloudy with Light Rain 52 11.1 49 9.4 89 89 ESE 5 7 29.87 1012 10 16 0.02 0.51
6:53 am 06:53 Cloudy with Light Rain 51 10.6 50 10 96 96 WNW 3 6 29.90 1012 5 8 0.03 0.76
7:53 am 07:53 Cloudy with Light Rain 52 11.1 50 10 93 93 S 6 9 29.91 1013 6 10 0.11 2.79
8:53 am 08:53 Cloudy with Light Rain 52 11.1 50 10 93 93 S 7 11 29.94 1014 10 16 0.05 1.27
9:53 am 09:53 Cloudy with Light Rain 53 11.7 50 10 89 89 S 3 6 29.95 1014 10 16 0.03 0.76
10:53 am 10:53 Cloudy with Light Rain 54 12.2 49 9.4 83 83 WNW 5 7 29.96 1015 10 16 0.02 0.51
11:53 am 11:53 Cloudy 57 13.9 49 9.4 74 74 Calm 29.96 1015 10 16 0.00 0.03
12:25 pm 12:25 Cloudy 59 15 50 10 72 72 VRB 3 6 29.85 1011 10 16 0.00 0.00
12:40 pm 12:40 Cloudy 59 15 48 9 68 68 VRB 5 7 29.85 1011 10 16 0.00 0.00
12:53 pm 12:53 Cloudy 60 15.6 49 9.4 67 67 N 7 11 29.95 1014 10 16 0.00 0.00
1:38 pm 13:38 Cloudy 61 16 48 9 63 63 undefined N/A 29.85 1011 10 16 0.00 0.00
1:53 pm 13:53 Cloudy 61 16.1 50 10 67 67 NNE 8 13 29.95 1014 10 16 0.00 0.00
2:27 pm 14:27 Mostly Sunny 63 17.2 50 10 63 63 NNE 9 15 29.83 1010 10 16 0.00 0.00
2:53 pm 14:53 Mostly Sunny 63 17.2 49 9.4 60 60 NE 6 9 29.94 1014 10 16 0.00 0.00
3:53 pm 15:53 Partly Cloudy 64 17.8 48 8.9 56 56 ENE 8 13 29.93 1014 10 16 0.00 0.00
4:53 pm 16:53 Mostly Sunny 66 18.9 50 10 56 56 NE 8 13 29.92 1013 10 16 0.00 0.00
5:53 pm 17:53 Mostly Sunny 66 18.9 48 8.9 52 52 NNE 10 17 29.91 1013 10 16 0.00 0.00
6:53 pm 18:53 Mostly Sunny 62 16.7 48 8.9 60 60 ENE 3 6 29.92 1013 10 16 0.00 0.00
7:53 pm 19:53 Sunny 62 16.7 49 9.4 62 62 ENE 9 15 29.91 1013 10 16 0.00 0.00
8:53 pm 20:53 Sunny 57 13.9 49 9.4 74 74 ENE 7 11 29.93 1014 10 16 0.00 0.00
9:53 pm 21:53 Clear 55 12.8 48 8.9 77 77 ENE 7 11 29.96 1015 10 16 0.00 0.00
10:53 pm 22:53 Clear 53 11.7 48 8.9 83 83 ENE 9 15 29.96 1015 10 16 0.00 0.00
11:53 pm 23:53 Clear 52 11.1 48 8.9 86 86 E 5 7 29.96 1015 10 16 0.00 0.00

Powered by AerisWeather